Norwood, MA

11:28 PM EDT on August 31, 2016 (GMT -0400)
Norwood Memorial

Weather History for KOWD - April, 2014

Change the Weather History Date:

Thursday, April 24, 2014

  Actual Average Record
Temperature  
Mean Temperature 50 °F -  
Max Temperature 59 °F 60 °F 84 °F (2001)
Min Temperature 42 °F 36 °F 26 °F (2002)
Degree Days  
Heating Degree Days 16    
Moisture  
Dew Point 23 °F    
Average Humidity 37    
Maximum Humidity 55    
Minimum Humidity 24    
Precipitation  
Precipitation 0.00 in - - ()
Sea Level Pressure  
Sea Level Pressure 29.72 in    
Wind  
Wind Speed 16 mph (NW)    
Max Wind Speed 24 mph    
Max Gust Speed 38 mph    
Visibility 10 miles    
Events Rain    
Averages and records for this station are not official NWS values.
T = Trace of Precipitation, MM = Missing Value Source: NWS Daily Summary

Daily Weather History Graph

Daily Weather History Graph

Search for Another Location

Airport or City:

Trip Planner

Search our weather history database for the weather conditions in past years. The results will help you decide how hot, cold, wet, or windy it might be!

Date:

Astronomy

Apr. 24, 2014 Rise Set
Actual Time 5:50 AM EDT 7:36 PM EDT
Civil Twilight 5:20 AM EDT 8:06 PM EDT
Nautical Twilight 4:44 AM EDT 8:42 PM EDT
Astronomical Twilight 4:05 AM EDT 9:21 PM EDT
Moon 3:05 AM EDT (4/24) 2:43 PM EDT (4/24)
Length of Visible Light 14h 45m
Length of Day
13h 45m
Waning Crescent, 24% of the Moon is Illuminated
Apr 24
Waning Crescent
Apr 29
New
May 6
First Quarter
May 14
Full
May 21
Last Quarter

Hourly Weather History & Observations

Time (EDT) Temp. Windchill Dew Point Humidity Pressure Visibility Wind Dir Wind Speed Gust Speed Precip Events Conditions
12:53 AM 46.0 °F 38.8 °F 30.0 °F 54% 29.62 in 10.0 mi NW 18.4 mph 26.5 mph N/A   Mostly Cloudy
1:53 AM 46.0 °F 40.6 °F 28.9 °F 51% 29.62 in 10.0 mi NW 11.5 mph 24.2 mph N/A   Overcast
2:53 AM 45.0 °F 37.9 °F 27.0 °F 49% 29.61 in 10.0 mi NW 16.1 mph 24.2 mph N/A   Mostly Cloudy
3:53 AM 44.1 °F 37.4 °F 26.1 °F 49% 29.62 in 10.0 mi NW 13.8 mph 32.2 mph 0.00 in Rain Light Rain
4:53 AM 42.1 °F 34.5 °F 24.1 °F 49% 29.63 in 10.0 mi NW 15.0 mph 28.8 mph 0.00 in   Clear
5:53 AM 42.1 °F 34.5 °F 21.0 °F 43% 29.65 in 10.0 mi NW 15.0 mph 28.8 mph N/A   Clear
6:53 AM 42.1 °F 34.2 °F 19.0 °F 40% 29.66 in 10.0 mi NW 16.1 mph 31.1 mph N/A   Clear
7:53 AM 44.1 °F 35.9 °F 18.0 °F 35% 29.67 in 10.0 mi WNW 19.6 mph 31.1 mph N/A   Clear
8:53 AM 45.0 °F 36.2 °F 17.1 °F 33% 29.68 in 10.0 mi NW 24.2 mph 36.8 mph 0.00 in Rain Light Rain
9:53 AM 48.0 °F - 19.0 °F 32% 29.70 in 10.0 mi WNW 24.2 mph 34.5 mph 0.00 in   Clear
10:53 AM 50.0 °F - 21.9 °F 33% 29.69 in 10.0 mi NW 21.9 mph 38.0 mph 0.00 in Rain Light Rain
11:53 AM 52.0 °F - 23.0 °F 32% 29.70 in 10.0 mi NNW 19.6 mph 32.2 mph 0.00 in   Unknown
12:53 PM 55.9 °F - 23.0 °F 28% 29.68 in 10.0 mi NNW 15.0 mph 36.8 mph N/A   Clear
1:53 PM 57.0 °F - 23.0 °F 27% 29.68 in 10.0 mi WNW 24.2 mph 33.4 mph N/A   Clear
2:53 PM 57.9 °F - 21.9 °F 25% 29.69 in 10.0 mi NNW 17.3 mph 32.2 mph N/A   Clear
3:53 PM 57.9 °F - 21.0 °F 24% 29.69 in 10.0 mi NNW 18.4 mph 29.9 mph N/A   Clear
4:53 PM 57.0 °F - 21.9 °F 26% 29.72 in 10.0 mi NNW 23.0 mph 34.5 mph N/A   Clear
5:53 PM 55.9 °F - 23.0 °F 28% 29.75 in 10.0 mi NNW 17.3 mph 31.1 mph N/A   Clear
6:53 PM 55.0 °F - 23.0 °F 29% 29.79 in 10.0 mi NNW 17.3 mph 27.6 mph N/A   Clear
7:53 PM 52.0 °F - 23.0 °F 32% 29.83 in 10.0 mi NW 12.7 mph 24.2 mph N/A   Clear
8:53 PM 51.1 °F - 24.1 °F 35% 29.88 in 10.0 mi NW 12.7 mph 25.3 mph N/A   Clear
9:53 PM 50.0 °F - 25.0 °F 38% 29.91 in 10.0 mi NNW 8.1 mph 17.3 mph N/A   Clear
10:53 PM 46.9 °F - 26.1 °F 44% 29.91 in 10.0 mi WNW 4.6 mph - N/A   Clear
11:53 PM 42.1 °F - 27.0 °F 55% 29.92 in 10.0 mi Calm Calm - N/A   Clear